Location: Copeville
(33.0796°N, 96.4155°W)
Time: 06:16:58
(UTC+00:00)

Cosmos 1328 Rocket - Pass Details

Date: 03 July 2022
Orbit: 600 x 627 km, 82.5° (Epoch: 14 August)

Event Time Altitude Azimuth Distance (km) Brightness Sun altitude
Rises 10:02:57 0° 329° (NNW) 2,896 7.1 -14.4°
Reaches altitude 10° 10:06:13 10° 303° (WNW) 1,979 6.0 -13.9°
Maximum altitude 10:08:20 13° 274° (W) 1,756 5.5 -13.5°
Enters shadow 10:08:31 13° 271° (W) 1,757 5.4 -13.5°
